Location: Godiavel Galaoual
(15.2485°N, 12.6604°W)
Time: 08:08:39
(UTC+00:00)

Cosmos 2034 Rocket - Pass Details

Date: 27 February 2020
Orbit: 959 x 1000 km, 82.9° (Epoch: 08 April)

Event Time Altitude Azimuth Distance (km) Brightness Sun altitude
Rises 20:01:30 0° 187° (S) 3,652 7.2 -16.1°
Reaches altitude 10° 20:04:01 10° 189° (S) 2,701 6.5 -16.7°
Maximum altitude 20:10:10 74° 274° (W) 998 4.2 -18.2°
Drops below altitude 10° 20:16:18 10° 359° (N) 2,687 6.3 -19.7°
Sets 20:18:48 0° 1° (N) 3,632 7.0 -20.3°
